TimeCDT,TemperatureF,Dew PointF,Humidity,Sea Level PressureIn,VisibilityMPH,Wind Direction,Wind SpeedMPH,Gust SpeedMPH,PrecipitationIn,Events,Conditions,WindDirDegrees,DateUTC
12:13 AM,68.0,58.5,71,29.86,10.0,SE,8.1,-,N/A,,Clear,130,2013-09-27 05:13:00
12:33 AM,68.0,58.5,71,29.86,10.0,SE,6.9,-,N/A,,Clear,130,2013-09-27 05:33:00
12:53 AM,68.0,58.5,71,29.86,10.0,SE,8.1,-,N/A,,Clear,130,2013-09-27 05:53:00
1:12 AM,67.5,58.6,73,29.86,10.0,SE,8.1,-,N/A,,Clear,130,2013-09-27 06:12:00
1:33 AM,67.3,59.0,75,29.86,10.0,SE,10.4,-,N/A,,Clear,140,2013-09-27 06:33:00
1:53 AM,67.1,59.0,75,29.86,10.0,SE,8.1,-,N/A,,Clear,140,2013-09-27 06:53:00
2:12 AM,66.7,59.0,76,29.86,10.0,SE,8.1,-,N/A,,Clear,140,2013-09-27 07:12:00
2:33 AM,66.4,59.2,78,29.85,10.0,SE,10.4,-,N/A,,Clear,130,2013-09-27 07:33:00
2:53 AM,66.4,59.2,78,29.84,10.0,SE,9.2,-,N/A,,Clear,130,2013-09-27 07:53:00
3:12 AM,66.2,59.2,78,29.84,10.0,SE,10.4,-,N/A,,Clear,140,2013-09-27 08:12:00
3:33 AM,66.0,59.4,79,29.84,10.0,SE,9.2,-,N/A,,Clear,140,2013-09-27 08:33:00
3:53 AM,66.0,59.4,79,29.83,7.0,SE,10.4,-,N/A,,Clear,140,2013-09-27 08:53:00
4:13 AM,65.8,59.5,80,29.82,10.0,SE,9.2,-,N/A,,Clear,130,2013-09-27 09:13:00
4:33 AM,65.8,59.5,80,29.82,10.0,SE,10.4,-,N/A,,Clear,140,2013-09-27 09:33:00
4:52 AM,65.8,59.9,81,29.82,10.0,SE,10.4,-,N/A,,Clear,130,2013-09-27 09:52:00
5:12 AM,65.8,59.9,81,29.82,10.0,SE,10.4,16.1,N/A,,Clear,130,2013-09-27 10:12:00
5:33 AM,66.2,59.9,80,29.83,10.0,SE,9.2,-,N/A,,Scattered Clouds,140,2013-09-27 10:33:00
5:53 AM,66.4,59.9,80,29.84,10.0,SSE,9.2,-,N/A,,Mostly Cloudy,150,2013-09-27 10:53:00
6:12 AM,66.6,59.9,79,29.85,10.0,SSE,8.1,17.3,N/A,,Mostly Cloudy,150,2013-09-27 11:12:00
6:33 AM,66.7,60.1,79,29.86,10.0,SSE,9.2,-,N/A,Thunderstorm,Mostly Cloudy,150,2013-09-27 11:33:00
6:53 AM,66.4,60.4,81,29.87,10.0,SSE,8.1,-,N/A,Rain,Light Rain,150,2013-09-27 11:53:00
7:13 AM,66.2,60.8,83,29.86,7.0,SE,8.1,-,N/A,Rain-Thunderstorm,Thunderstorms and Rain,140,2013-09-27 12:13:00
7:33 AM,64.8,61.5,89,29.85,10.0,SE,10.4,-,0.03,Rain-Thunderstorm,Light Thunderstorms and Rain,130,2013-09-27 12:33:00
7:53 AM,65.3,61.7,88,29.83,10.0,SE,11.5,-,0.05,,Scattered Clouds,130,2013-09-27 12:53:00
8:13 AM,65.7,61.7,87,29.84,7.0,SE,11.5,19.6,N/A,Rain,Rain,140,2013-09-27 13:13:00
8:33 AM,66.2,61.7,85,29.83,7.0,SE,10.4,17.3,N/A,Rain,Rain,130,2013-09-27 13:33:00
8:52 AM,66.4,61.5,84,29.83,5.0,SE,10.4,19.6,N/A,Rain,Rain,140,2013-09-27 13:52:00
9:13 AM,67.1,61.5,82,29.84,10.0,SE,11.5,21.9,N/A,Rain,Light Rain,140,2013-09-27 14:13:00
9:33 AM,67.1,61.7,83,29.83,10.0,SE,15.0,24.2,N/A,,Mostly Cloudy,140,2013-09-27 14:33:00
9:53 AM,66.9,61.7,83,29.82,7.0,SSE,12.7,24.2,N/A,Rain-Thunderstorm,Light Thunderstorms and Rain,150,2013-09-27 14:53:00
10:12 AM,65.8,62.2,88,29.83,7.0,SSE,12.7,19.6,N/A,Rain,Light Rain,150,2013-09-27 15:12:00
10:32 AM,66.7,62.6,86,29.83,10.0,SE,13.8,20.7,N/A,,Scattered Clouds,140,2013-09-27 15:32:00
10:53 AM,67.1,62.4,85,29.84,10.0,SSE,13.8,17.3,N/A,,Scattered Clouds,150,2013-09-27 15:53:00
11:12 AM,-9999,-9999,N/A,-9999,-9999.0,North,-9999.0,-,N/A,,Unknown,0,2013-09-27 16:12:00
11:33 AM,67.8,62.4,83,29.84,10.0,SSE,13.8,19.6,N/A,,Unknown,150,2013-09-27 16:33:00
11:53 AM,67.1,62.1,84,29.83,10.0,SE,10.4,23.0,N/A,Rain,Light Rain,140,2013-09-27 16:53:00
12:12 PM,66.7,62.4,86,29.82,7.0,SE,12.7,-,N/A,Rain,Light Rain,140,2013-09-27 17:12:00
12:33 PM,66.2,62.4,88,29.81,5.0,SE,15.0,23.0,0.03,Rain-Thunderstorm,Rain,130,2013-09-27 17:33:00
12:53 PM,66.4,62.6,88,29.81,10.0,SE,15.0,20.7,0.04,Rain-Thunderstorm,Light Thunderstorms and Rain,130,2013-09-27 17:53:00
1:13 PM,67.1,63.0,87,29.80,10.0,SE,10.4,16.1,N/A,,Overcast,130,2013-09-27 18:13:00
1:32 PM,69.8,64.9,84,29.79,10.0,SE,11.5,17.3,N/A,,Scattered Clouds,140,2013-09-27 18:32:00
1:52 PM,70.9,63.1,76,29.77,10.0,SE,11.5,19.6,N/A,,Clear,130,2013-09-27 18:52:00
2:13 PM,72.9,63.3,72,29.76,10.0,SE,16.1,19.6,N/A,,Clear,130,2013-09-27 19:13:00
2:33 PM,73.9,63.0,68,29.76,10.0,SE,13.8,19.6,N/A,,Clear,130,2013-09-27 19:33:00
2:53 PM,75.6,62.6,64,29.75,10.0,SSE,10.4,18.4,N/A,,Clear,150,2013-09-27 19:53:00
3:13 PM,76.3,62.2,62,29.76,10.0,SSE,10.4,16.1,N/A,Thunderstorm,Thunderstorm,160,2013-09-27 20:13:00
3:32 PM,77.9,61.0,56,29.76,10.0,South,9.2,-,N/A,,Scattered Clouds,170,2013-09-27 20:32:00
3:52 PM,78.1,60.8,55,29.77,10.0,South,5.8,-,N/A,,Scattered Clouds,180,2013-09-27 20:52:00
4:13 PM,77.4,61.3,58,29.77,10.0,South,9.2,-,N/A,Rain,Light Rain,180,2013-09-27 21:13:00
4:32 PM,78.3,61.3,56,29.78,10.0,South,5.8,-,N/A,,Mostly Cloudy,190,2013-09-27 21:32:00
4:53 PM,77.9,61.7,57,29.77,10.0,South,3.5,-,N/A,,Scattered Clouds,180,2013-09-27 21:53:00
5:12 PM,77.4,60.8,57,29.77,10.0,SSE,6.9,-,N/A,,Clear,160,2013-09-27 22:12:00
5:33 PM,78.3,58.3,50,29.78,10.0,South,8.1,-,N/A,,Scattered Clouds,180,2013-09-27 22:33:00
5:52 PM,78.4,57.4,48,29.78,10.0,South,3.5,-,N/A,,Clear,170,2013-09-27 22:52:00
6:13 PM,77.9,57.7,50,29.77,10.0,SSE,5.8,-,N/A,,Scattered Clouds,160,2013-09-27 23:13:00
6:33 PM,77.9,57.9,50,29.78,10.0,South,4.6,-,N/A,,Scattered Clouds,190,2013-09-27 23:33:00
6:53 PM,77.4,58.3,52,29.78,10.0,South,4.6,-,N/A,,Scattered Clouds,170,2013-09-27 23:53:00
7:13 PM,77.0,58.5,53,29.78,10.0,South,5.8,-,N/A,,Clear,170,2013-09-28 00:13:00
7:33 PM,77.0,58.6,53,29.78,10.0,SSE,5.8,-,N/A,,Clear,160,2013-09-28 00:33:00
7:53 PM,76.6,58.5,53,29.77,10.0,SSE,5.8,-,N/A,,Clear,150,2013-09-28 00:53:00
8:12 PM,76.5,58.5,54,29.77,10.0,SE,8.1,-,N/A,,Clear,140,2013-09-28 01:12:00
8:33 PM,76.3,59.0,55,29.77,10.0,SE,9.2,-,N/A,,Clear,140,2013-09-28 01:33:00
8:52 PM,76.1,59.0,55,29.77,10.0,SSE,10.4,-,N/A,,Scattered Clouds,150,2013-09-28 01:52:00
9:13 PM,76.1,59.0,55,29.77,10.0,SE,10.4,-,N/A,,Scattered Clouds,140,2013-09-28 02:13:00
9:32 PM,75.6,59.2,57,29.77,10.0,SE,12.7,19.6,N/A,,Clear,140,2013-09-28 02:32:00
9:52 PM,75.2,59.2,57,29.77,10.0,SE,11.5,16.1,N/A,,Clear,140,2013-09-28 02:52:00
10:13 PM,74.7,59.0,58,29.77,10.0,SE,10.4,16.1,N/A,,Mostly Cloudy,140,2013-09-28 03:13:00
10:32 PM,73.4,59.0,61,29.77,10.0,SE,9.2,16.1,N/A,,Mostly Cloudy,140,2013-09-28 03:32:00
10:52 PM,73.4,58.5,59,29.77,10.0,SSE,10.4,-,N/A,,Mostly Cloudy,150,2013-09-28 03:52:00
11:13 PM,72.9,58.5,60,29.77,10.0,SE,13.8,-,N/A,,Mostly Cloudy,140,2013-09-28 04:13:00
11:32 PM,73.4,58.3,59,29.76,10.0,SE,12.7,18.4,N/A,,Mostly Cloudy,140,2013-09-28 04:32:00
11:53 PM,73.0,58.1,59,29.75,10.0,SSE,15.0,19.6,N/A,,Scattered Clouds,150,2013-09-28 04:53:00